Total_Precipitation_Accumulation
0.79 0.97 1.25 1.60 1.86 2.00 2.27 2.43 2.61 2.78 2.86 2.79 2.48 2.13 1.89 1.76 1.64 1.45 1.31 1.24 1.19 1.16 1.16 1.14 1.03 0.93 0.85 0.77 0.71 0.71 0.73 0.77 0.82 0.80 0.67 0.54 0.46 0.39 0.33 0.29 0.24 0.20 0.17
0.61 0.77 1.09 1.29 1.52 1.74 1.91 2.19 2.24 2.47 2.53 2.47 2.46 2.29 2.17 2.06 1.94 1.78 1.53 1.39 1.35 1.26 1.19 1.15 1.11 1.01 0.94 0.93 0.93 0.90 0.85 0.80 0.84 0.91 0.89 0.72 0.59 0.45 0.35 0.32 0.31 0.27 0.26
0.50 0.63 0.87 1.09 1.22 1.44 1.72 1.86 1.95 2.15 2.37 2.44 2.57 2.67 2.60 2.30 2.04 1.87 1.76 1.61 1.53 1.44 1.32 1.22 1.19 1.15 1.04 0.98 1.02 1.06 1.07 1.06 1.04 1.02 1.15 1.04 0.76 0.56 0.41 0.34 0.32 0.32 0.32
0.45 0.52 0.61 0.79 0.94 1.10 1.44 1.76 1.93 2.05 2.23 2.51 2.51 2.43 2.31 2.08 1.82 1.82 1.87 1.84 1.71 1.61 1.47 1.38 1.30 1.27 1.22 1.15 1.16 1.17 1.22 1.28 1.25 1.19 1.14 1.08 0.93 0.87 0.65 0.41 0.34 0.32 0.31
0.52 0.50 0.52 0.64 0.79 0.92 1.18 1.45 1.73 2.00 2.19 2.29 2.34 2.37 2.21 2.02 1.96 1.90 1.88 1.80 1.69 1.64 1.55 1.49 1.45 1.40 1.37 1.36 1.41 1.40 1.38 1.38 1.38 1.32 1.26 1.25 1.13 1.01 0.95 0.71 0.50 0.46 0.41
0.53 0.51 0.51 0.60 0.73 0.80 0.96 1.21 1.46 1.62 1.85 2.07 2.14 2.17 2.14 2.12 2.06 1.88 1.80 1.82 1.80 1.73 1.63 1.61 1.60 1.58 1.55 1.51 1.49 1.52 1.55 1.55 1.51 1.49 1.38 1.32 1.27 1.13 1.14 1.03 0.78 0.70 0.61
0.43 0.44 0.47 0.54 0.67 0.78 0.86 0.97 1.13 1.25 1.41 1.62 1.76 1.82 1.91 2.01 1.94 1.82 1.68 1.67 1.65 1.61 1.56 1.54 1.58 1.63 1.61 1.61 1.62 1.62 1.59 1.62 1.64 1.61 1.55 1.46 1.35 1.27 1.32 1.35 1.15 0.96 0.78
0.42 0.40 0.39 0.45 0.55 0.65 0.74 0.81 0.90 0.99 1.15 1.30 1.43 1.55 1.66 1.83 1.82 1.79 1.63 1.51 1.46 1.46 1.53 1.46 1.40 1.43 1.50 1.54 1.56 1.56 1.54 1.54 1.53 1.50 1.50 1.48 1.37 1.37 1.42 1.51 1.61 1.52 1.20
0.41 0.39 0.38 0.39 0.48 0.54 0.60 0.69 0.80 0.87 0.95 1.10 1.24 1.35 1.42 1.51 1.57 1.64 1.65 1.51 1.43 1.42 1.42 1.36 1.29 1.22 1.23 1.31 1.40 1.41 1.41 1.42 1.43 1.42 1.41 1.43 1.38 1.40 1.45 1.56 1.75 1.95 1.77
0.40 0.37 0.39 0.42 0.47 0.49 0.51 0.60 0.75 0.78 0.81 0.89 1.00 1.10 1.20 1.35 1.43 1.45 1.44 1.40 1.37 1.37 1.35 1.27 1.18 1.12 1.09 1.08 1.16 1.19 1.19 1.23 1.23 1.26 1.29 1.28 1.26 1.31 1.38 1.45 1.54 1.71 1.81
0.41 0.40 0.45 0.51 0.54 0.50 0.51 0.58 0.66 0.76 0.82 0.84 0.88 0.93 0.94 1.03 1.19 1.29 1.30 1.30 1.28 1.27 1.25 1.21 1.15 1.10 1.03 0.98 0.97 0.96 1.00 1.07 1.08 1.12 1.14 1.11 1.09 1.15 1.19 1.25 1.33 1.42 1.54
0.37 0.42 0.50 0.52 0.53 0.55 0.58 0.61 0.64 0.71 0.81 0.83 0.84 0.88 0.90 0.90 0.99 1.09 1.19 1.25 1.31 1.24 1.21 1.17 1.12 1.06 1.02 0.98 0.95 0.91 0.90 0.95 0.98 1.01 1.06 1.06 1.03 1.04 1.08 1.14 1.14 1.16 1.19
0.36 0.37 0.44 0.49 0.51 0.54 0.64 0.67 0.70 0.72 0.73 0.75 0.76 0.77 0.77 0.78 0.83 0.90 1.00 1.07 1.16 1.16 1.13 1.13 1.08 0.99 0.96 0.94 0.92 0.87 0.87 0.89 0.89 0.91 0.99 1.03 1.07 1.08 1.08 1.09 1.09 1.08 1.10
0.34 0.35 0.40 0.44 0.48 0.53 0.57 0.58 0.65 0.67 0.69 0.67 0.72 0.73 0.70 0.69 0.75 0.85 0.89 0.93 0.98 1.05 1.05 1.07 1.11 1.09 1.03 1.00 0.97 0.93 0.89 0.91 0.91 0.90 0.94 0.99 1.02 1.00 0.98 1.01 0.99 1.02 1.08
0.30 0.34 0.37 0.40 0.43 0.42 0.41 0.44 0.50 0.57 0.59 0.61 0.68 0.72 0.74 0.77 0.87 0.91 0.87 0.87 0.89 0.95 0.99 1.00 1.05 1.08 1.08 1.06 1.05 1.02 1.01 1.03 1.04 1.01 0.97 0.96 1.01 0.99 0.97 0.97 0.98 1.01 1.08
0.24 0.26 0.30 0.36 0.39 0.37 0.37 0.37 0.40 0.45 0.47 0.48 0.54 0.61 0.68 0.77 0.87 0.94 0.91 0.88 0.86 0.91 0.98 0.98 1.03 1.10 1.12 1.26 1.23 1.14 1.10 1.09 1.06 1.00 0.92 0.89 0.93 0.92 0.95 0.97 0.98 1.05 1.16
0.18 0.19 0.22 0.28 0.29 0.29 0.32 0.34 0.36 0.39 0.42 0.41 0.43 0.50 0.63 0.73 0.78 0.84 0.89 0.90 0.90 1.00 1.10 1.10 1.11 1.18 1.29 1.36 1.19 1.12 1.04 1.02 0.98 0.91 0.85 0.81 0.79 0.83 0.78 0.83 0.90 0.95 1.06
0.14 0.15 0.18 0.21 0.21 0.22 0.24 0.26 0.27 0.33 0.42 0.45 0.47 0.51 0.58 0.68 0.78 0.83 0.88 0.94 0.96 1.05 1.14 1.19 1.21 1.23 1.26 1.28 1.18 1.08 0.93 0.88 0.84 0.79 0.75 0.74 0.72 0.74 0.80 0.87 0.93 0.86 0.82
0.14 0.14 0.16 0.17 0.16 0.18 0.21 0.21 0.22 0.28 0.37 0.43 0.48 0.48 0.53 0.63 0.74 0.84 0.92 0.96 1.00 1.06 1.11 1.10 1.08 1.05 1.07 1.07 0.99 0.98 0.88 0.86 0.79 0.73 0.73 0.73 0.70 0.79 0.94 0.99 1.00 0.86 0.73
0.18 0.17 0.16 0.16 0.16 0.18 0.20 0.23 0.25 0.29 0.37 0.41 0.45 0.47 0.50 0.58 0.68 0.79 0.88 0.93 0.95 0.95 0.95 0.94 0.89 0.86 0.88 0.94 0.87 0.87 0.86 0.86 0.79 0.73 0.72 0.80 0.78 0.88 1.00 0.96 0.96 0.89 0.73
0.17 0.22 0.24 0.25 0.26 0.28 0.29 0.30 0.32 0.35 0.38 0.42 0.47 0.49 0.52 0.57 0.66 0.71 0.74 0.77 0.76 0.73 0.72 0.71 0.68 0.67 0.71 0.77 0.76 0.77 0.80 0.81 0.82 0.81 0.74 0.73 0.90 0.99 1.03 0.94 0.79 0.80 0.87
0.18 0.23 0.28 0.29 0.32 0.33 0.35 0.36 0.39 0.40 0.41 0.43 0.47 0.52 0.54 0.53 0.54 0.56 0.60 0.58 0.57 0.57 0.56 0.57 0.57 0.58 0.61 0.66 0.71 0.76 0.81 0.86 0.81 0.76 0.70 0.73 0.90 0.91 0.87 0.80 0.81 0.89 0.85
0.16 0.20 0.23 0.24 0.25 0.30 0.36 0.40 0.41 0.40 0.39 0.42 0.43 0.44 0.45 0.45 0.46 0.46 0.47 0.49 0.50 0.51 0.53 0.53 0.54 0.55 0.56 0.59 0.69 0.72 0.79 0.84 0.77 0.73 0.78 0.83 0.85 0.80 0.75 0.78 0.80 0.78 0.74
0.13 0.14 0.16 0.18 0.19 0.21 0.25 0.30 0.32 0.32 0.30 0.33 0.32 0.32 0.33 0.35 0.37 0.38 0.39 0.42 0.45 0.45 0.46 0.47 0.47 0.48 0.49 0.49 0.54 0.63 0.68 0.75 0.74 0.76 0.78 0.76 0.74 0.72 0.73 0.78 0.76 0.70 0.74
0.14 0.12 0.12 0.12 0.13 0.14 0.16 0.20 0.22 0.23 0.23 0.24 0.24 0.24 0.25 0.31 0.35 0.36 0.37 0.40 0.43 0.48 0.49 0.46 0.45 0.47 0.48 0.50 0.63 0.68 0.66 0.72 0.76 0.76 0.66 0.63 0.64 0.66 0.65 0.65 0.68 0.71 0.75
0.16 0.13 0.12 0.12 0.12 0.13 0.13 0.14 0.18 0.21 0.23 0.22 0.22 0.23 0.22 0.26 0.34 0.38 0.38 0.42 0.45 0.51 0.55 0.54 0.50 0.47 0.50 0.55 0.60 0.64 0.70 0.76 0.78 0.71 0.62 0.59 0.59 0.60 0.62 0.63 0.65 0.69 0.74